[[{"header":{"parameterUnit":"m.s-1","parameterCategory":1,"la1":30.2991,"la2":30.254,"lo1":-89.0895,"lo2":-89.0444,"dy":0.0017,"dx":0.0017,"nx":28,"ny":28,"refTime":"2025-07-15T09:00:00:Z","depth":0,"parameterNumber":2,"parameterNumberName":"U-component_of_WINDS"},"data":[0,0,0,0,0,0,0,0,0,0,0,0,0,0,0,0,0,0,0,0,0,0,0,0,0,0,0,0,0,0,0,0,0,0,0,0,0,0,0,0,0,0,0,0,0,0,0,0,0,0,0,0,0,0,0,0,0,0,0.5565,0.5566,0,0.5618,0.5618,0.5619,0.5618,0.5617,0.5616,0.5616,0.567,0.5672,0.5674,0,0,0,0,0,0,0,0,0,0,0,0,0,0.5465,0.5467,0.5565,0.5566,0.5566,0.5618,0.5618,0.5619,0.5618,0.5617,0.5616,0.5615,0.5669,0.5672,0.5674,0,0,0,0,0,0,0,0,0,0,0,0,0,0.5512,0.5467,0.5565,0.5572,0.5573,0.5618,0.5618,0.5619,0.5618,0.5617,0.5616,0.5615,0.5669,0.5672,0.5675,0.5716,0,0,0.5684,0.5686,0,0,0,0,0,0,0,0,0.5509,0.5516,0.557,0.5571,0.5573,0.561,0.5603,0.5652,0.5618,0.5601,0.5616,0.5614,0.5651,0.5656,0.5668,0.5718,0.5721,0.5685,0.5687,0.5688,0.5689,0,0,0,0,0,0,0,0.5506,0.5514,0.5586,0.5571,0.5573,0.5573,0.5579,0.5612,0.5631,0.5602,0.5602,0.5609,0.5652,0.5665,0.5669,0.5722,0.5685,0.5687,0.5689,0.5691,0.5811,0.5813,0,0,0,0,0,0,0.5501,0.5511,0.5584,0.5587,0.5538,0.5576,0.5582,0.5599,0.5631,0.5635,0.561,0.5608,0.566,0.5665,0.5671,0.5723,0.5688,0.5691,0.5693,0.581,0.5812,0.5813,0,0,0,0,0,0,0.5499,0.5508,0.5582,0.5549,0.5559,0.5579,0.5598,0.5601,0.5614,0.5636,0.564,0.562,0.5659,0.5667,0.5705,0.5725,0.5692,0.5695,0.5809,0.5811,0.5812,0.5826,0,0,0,0,0,0,0.5496,0.5507,0.5522,0.555,0.556,0.5615,0.5599,0.5603,0.562,0.5619,0.5647,0.565,0.5659,0.5701,0.5708,0.5728,0.5698,0.5807,0.5809,0.5812,0.5824,0.5828,0.5832,0,0,0,0,0,0.5493,0.5523,0.5523,0.5532,0.558,0.5616,0.5622,0.5631,0.5621,0.5637,0.5652,0.5649,0.5721,0.5705,0.5713,0.5735,0.5806,0.5809,0.5812,0.5822,0.5827,0.5832,0,0,0,0,0,0,0.5497,0.5527,0.5527,0.5567,0.5589,0.5616,0.5636,0.5636,0.5662,0.566,0.567,0.5677,0.5716,0.5729,0.571,0.5778,0.5762,0.5767,0.5767,0.5772,0.5776,0.5772,0.57,0,0,0,0,0,0.5503,0.553,0.5554,0.5588,0.5599,0.5616,0.5632,0.5637,0.566,0.5669,0.5687,0.571,0.5738,0.5756,0.5783,0.5826,0.5833,0.5845,0.5849,0.5852,0.5857,0.5883,0.5889,0.5823,0.5823,0.5823,0,0,0.5515,0.5535,0.5551,0.5589,0.5607,0.5635,0.5623,0.5653,0.5674,0.5674,0.5712,0.5726,0.5752,0.5794,0.5813,0.5806,0.5877,0.5856,0.5858,0.5861,0.5886,0.5893,0.5898,0.5825,0.5824,0.5824,0,0,0.5551,0.5568,0.5599,0.5617,0.5645,0.5656,0.5663,0.5691,0.57,0.5738,0.574,0.5765,0.5813,0.5832,0.5848,0.5895,0.5895,0.5904,0.5924,0.595,0.5955,0.596,0.5978,0.5984,0.5908,0.5908,0.5908,0,0.5563,0.5605,0.5615,0.5645,0.5663,0.5665,0.5697,0.5714,0.5749,0.5761,0.5753,0.5814,0.5832,0.5879,0.5891,0.5904,0.5914,0.59,0.5953,0.5958,0.5963,0.598,0.5987,0.5909,0.5909,0.5909,0.5908,0,0.5619,0.5648,0.5669,0.5704,0.5724,0.5755,0.577,0.579,0.5794,0.5807,0.5847,0.5869,0.5901,0.5913,0.5917,0.5962,0.5957,0.5951,0.5936,0.597,0.5987,0.5993,0.591,0.591,0.591,0.5909,0,0,0.5658,0.5699,0.5707,0.5723,0.5754,0.5778,0.581,0.5842,0.5859,0.5883,0.5911,0.5953,0.5948,0.5966,0.5973,0.5995,0.6033,0.5987,0.5988,0.5996,0.6086,0.6091,0.6099,0.6033,0.6035,0.6036,0.6085,0,0.5698,0.5755,0.5766,0.5815,0.5844,0.5847,0.5875,0.5898,0.5912,0.5938,0.5953,0.5983,0.5974,0.5985,0.6007,0.6024,0.6052,0.6021,0.6061,0.6062,0.6054,0.6107,0.6112,0.6156,0.6091,0.6092,0.6093,0,0.5753,0.578,0.5832,0.5862,0.5874,0.5899,0.5931,0.5956,0.5982,0.5991,0.6013,0.6018,0.6052,0.6036,0.6085,0.6064,0.6081,0.6092,0.6094,0.6098,0.6079,0.6114,0.6171,0.6178,0.6103,0.6102,0.6101,0,0.5778,0.5827,0.5865,0.5879,0.5914,0.5932,0.5948,0.5974,0.5993,0.6021,0.6034,0.6065,0.6083,0.6108,0.6121,0.6108,0.617,0.6155,0.6179,0.6179,0.6192,0.6191,0.6254,0.6202,0.6202,0.6202,0.6202,0,0.5822,0.5855,0.5877,0.5901,0.5938,0.5951,0.5987,0.6003,0.6026,0.6054,0.6059,0.6085,0.6101,0.613,0.6141,0.6182,0.6189,0.6198,0.62,0.6198,0.6197,0.6209,0.6207,0.6204,0.6203,0.6203,0.6203,0,0.5856,0.5873,0.5915,0.5945,0.5954,0.598,0.6007,0.6031,0.6045,0.608,0.6089,0.6111,0.6146,0.6162,0.6204,0.6212,0.6258,0.6258,0.6249,0.625,0.6274,0.6272,0.6348,0.6359,0.6299,0.63,0.63,0,0.5884,0.5909,0.5943,0.5962,0.5978,0.6008,0.6028,0.6043,0.6064,0.6098,0.6118,0.6153,0.6181,0.6237,0.6257,0.629,0.6292,0.6316,0.6297,0.6294,0.6294,0.6292,0.6296,0.6319,0.632,0.6321,0.6321,0,0.5931,0.5939,0.5967,0.6,0.6024,0.605,0.6076,0.6091,0.611,0.6134,0.617,0.6192,0.6236,0.6271,0.6306,0.6323,0.6326,0.6327,0.6335,0.6332,0.6326,0.6331,0.6259,0.6325,0.6325,0.6324,0.6324,0.6324,0.5963,0.5987,0.6015,0.6048,0.6069,0.6093,0.6118,0.6136,0.6166,0.6203,0.621,0.6248,0.6277,0.6324,0.6343,0.6374,0.6368,0.6379,0.6382,0.6384,0.6386,0.6321,0.638,0.638,0.638,0.638,0.638,0,0.6012,0.6031,0.6061,0.6097,0.6124,0.6124,0.6153,0.6176,0.6209,0.6235,0.6264,0.6306,0.6341,0.6365,0.64,0.6421,0.6423,0.643,0.6429,0.6433,0.6388,0.6379,0.6427,0.6427,0.6427,0.6427,0.6427,0.6427,0.6041,0.6081,0.6092,0.6144,0.6162,0.62,0.6217,0.624,0.6262,0.6308,0.6337,0.6353,0.6379,0.6417,0.645,0.6456,0.6469,0.6476,0.6483,0.6441,0.6436,0.6431,0.6422,0.6479,0.6479,0.6525,0.6525,0.6525]},{"header":{"parameterUnit":"m.s-1","parameterCategory":1,"la1":30.2991,"la2":30.254,"lo1":-89.0895,"lo2":-89.0444,"dy":0.0017,"dx":0.0017,"nx":28,"ny":28,"refTime":"2025-07-15T09:00:00:Z","depth":0,"parameterNumber":3,"parameterNumberName":"V-component_of_WINDS"},"data":[0,0,0,0,0,0,0,0,0,0,0,0,0,0,0,0,0,0,0,0,0,0,0,0,0,0,0,0,0,0,0,0,0,0,0,0,0,0,0,0,0,0,0,0,0,0,0,0,0,0,0,0,0,0,0,0,0,0,-2.4762,-2.4764,0,-2.4874,-2.4875,-2.4877,-2.4913,-2.4913,-2.4912,-2.4912,-2.5025,-2.5029,-2.5032,0,0,0,0,0,0,0,0,0,0,0,0,0,-2.458,-2.4583,-2.4762,-2.4764,-2.4765,-2.4874,-2.4875,-2.4877,-2.4913,-2.4912,-2.4912,-2.4911,-2.5024,-2.5028,-2.5033,0,0,0,0,0,0,0,0,0,0,0,0,0,-2.4672,-2.4584,-2.4762,-2.4796,-2.48,-2.4874,-2.4875,-2.4877,-2.4913,-2.4912,-2.4912,-2.4911,-2.5023,-2.5028,-2.5033,-2.508,0,0,-2.5049,-2.5051,0,0,0,0,0,0,0,0,-2.4667,-2.4679,-2.479,-2.4794,-2.4799,-2.4879,-2.4853,-2.4945,-2.4913,-2.487,-2.4912,-2.4911,-2.4977,-2.4986,-2.5009,-2.5085,-2.509,-2.505,-2.5053,-2.5055,-2.5056,0,0,0,0,0,0,0,-2.466,-2.4674,-2.4807,-2.4791,-2.4797,-2.4806,-2.4818,-2.4871,-2.4927,-2.4874,-2.4877,-2.489,-2.4979,-2.5004,-2.5012,-2.5092,-2.5049,-2.5054,-2.5057,-2.5059,-2.5213,-2.5213,0,0,0,0,0,0,-2.4648,-2.4668,-2.4803,-2.481,-2.473,-2.481,-2.4823,-2.4854,-2.4926,-2.4936,-2.489,-2.4891,-2.4995,-2.5005,-2.5016,-2.5075,-2.5055,-2.506,-2.5063,-2.5212,-2.5213,-2.5214,0,0,0,0,0,0,-2.4644,-2.466,-2.4798,-2.474,-2.4758,-2.4814,-2.4848,-2.4857,-2.4881,-2.4938,-2.4948,-2.4905,-2.4995,-2.5008,-2.5064,-2.5079,-2.5062,-2.5067,-2.5211,-2.5212,-2.5213,-2.5194,0,0,0,0,0,0,-2.4639,-2.4658,-2.4677,-2.474,-2.4761,-2.4845,-2.4849,-2.4859,-2.489,-2.4892,-2.4954,-2.4964,-2.4995,-2.5056,-2.5069,-2.5086,-2.5071,-2.5209,-2.5211,-2.5213,-2.5193,-2.5194,-2.5195,0,0,0,0,0,-2.4632,-2.4667,-2.4677,-2.4693,-2.4786,-2.4846,-2.4858,-2.4893,-2.4891,-2.491,-2.4947,-2.4962,-2.5076,-2.5061,-2.5076,-2.5095,-2.5209,-2.5211,-2.5213,-2.5193,-2.5194,-2.5195,0,0,0,0,0,0,-2.4603,-2.4676,-2.4688,-2.4745,-2.4789,-2.4852,-2.4876,-2.4893,-2.4939,-2.4939,-2.4981,-2.4995,-2.5046,-2.5077,-2.5059,-2.5145,-2.5143,-2.5148,-2.5123,-2.5124,-2.5125,-2.5116,-2.5075,0,0,0,0,0,-2.4604,-2.4646,-2.4707,-2.4751,-2.4773,-2.4821,-2.4848,-2.4872,-2.4919,-2.4937,-2.4979,-2.5024,-2.507,-2.5099,-2.5144,-2.5198,-2.5212,-2.5219,-2.522,-2.5221,-2.5224,-2.5254,-2.5258,-2.5221,-2.5221,-2.5221,0,0,-2.4605,-2.4649,-2.4674,-2.4747,-2.4783,-2.4826,-2.4836,-2.4881,-2.4913,-2.4944,-2.4999,-2.5031,-2.5084,-2.5138,-2.5165,-2.5165,-2.5238,-2.5223,-2.5223,-2.5227,-2.5257,-2.526,-2.5263,-2.5222,-2.5222,-2.5222,0,0,-2.4628,-2.4667,-2.4707,-2.4744,-2.4799,-2.4831,-2.4841,-2.4902,-2.4924,-2.4979,-2.5003,-2.5042,-2.5121,-2.5157,-2.5186,-2.5224,-2.5239,-2.5237,-2.5242,-2.5271,-2.5274,-2.5277,-2.5289,-2.5293,-2.5241,-2.5241,-2.5241,0,-2.4622,-2.4688,-2.4726,-2.4769,-2.48,-2.4831,-2.4872,-2.4906,-2.4973,-2.4994,-2.4994,-2.5093,-2.5131,-2.5194,-2.5203,-2.5226,-2.5237,-2.523,-2.527,-2.5274,-2.5277,-2.5289,-2.5294,-2.524,-2.524,-2.524,-2.524,0,-2.4677,-2.4722,-2.4748,-2.4813,-2.4847,-2.4889,-2.4933,-2.4963,-2.4984,-2.5015,-2.5071,-2.5118,-2.5173,-2.519,-2.5211,-2.5256,-2.5255,-2.5262,-2.5261,-2.5279,-2.5291,-2.5296,-2.5239,-2.524,-2.524,-2.524,0,0,-2.4685,-2.477,-2.4778,-2.4808,-2.4872,-2.4907,-2.4951,-2.5005,-2.5029,-2.5075,-2.5112,-2.5178,-2.5185,-2.5218,-2.5243,-2.5269,-2.5294,-2.5273,-2.5275,-2.5274,-2.5346,-2.534,-2.5344,-2.5305,-2.5307,-2.5307,-2.5342,0,-2.4715,-2.4794,-2.4829,-2.4892,-2.4934,-2.4964,-2.5002,-2.5045,-2.5076,-2.5116,-2.515,-2.5195,-2.5202,-2.5222,-2.5248,-2.5285,-2.5309,-2.5284,-2.534,-2.5341,-2.5324,-2.5351,-2.5344,-2.5374,-2.5347,-2.5348,-2.5348,0,-2.4761,-2.4807,-2.4874,-2.4932,-2.4951,-2.4985,-2.5037,-2.5075,-2.5124,-2.5145,-2.5182,-2.5206,-2.5252,-2.5249,-2.5314,-2.5295,-2.5321,-2.5342,-2.5344,-2.535,-2.5345,-2.5356,-2.5385,-2.5389,-2.5356,-2.5356,-2.5355,0,-2.4759,-2.4837,-2.4887,-2.4911,-2.4981,-2.5004,-2.5034,-2.5083,-2.5113,-2.5159,-2.5179,-2.5229,-2.5257,-2.5296,-2.5333,-2.5327,-2.5393,-2.5393,-2.5411,-2.541,-2.5423,-2.5421,-2.5454,-2.5441,-2.5441,-2.5441,-2.5441,0,-2.4788,-2.4828,-2.4887,-2.4917,-2.4962,-2.5003,-2.5046,-2.5078,-2.5122,-2.5159,-2.5188,-2.5222,-2.527,-2.531,-2.534,-2.5388,-2.5401,-2.5418,-2.5426,-2.5415,-2.5413,-2.5431,-2.543,-2.5442,-2.5442,-2.5442,-2.5441,0,-2.4792,-2.4834,-2.489,-2.4951,-2.4968,-2.4998,-2.5051,-2.5082,-2.5114,-2.5161,-2.5174,-2.5225,-2.5274,-2.5315,-2.538,-2.54,-2.545,-2.5459,-2.5433,-2.5436,-2.5452,-2.5449,-2.5497,-2.5505,-2.5487,-2.5487,-2.5487,0,-2.4808,-2.4839,-2.4904,-2.4931,-2.4961,-2.5004,-2.5035,-2.5076,-2.5107,-2.5166,-2.5189,-2.524,-2.5283,-2.536,-2.5403,-2.5452,-2.5462,-2.5476,-2.547,-2.5458,-2.5461,-2.5459,-2.5462,-2.5476,-2.5476,-2.5476,-2.5476,0,-2.4831,-2.485,-2.4893,-2.4944,-2.498,-2.5022,-2.5064,-2.5085,-2.5134,-2.5167,-2.5218,-2.5251,-2.5317,-2.5367,-2.5421,-2.5452,-2.5472,-2.5477,-2.5484,-2.5473,-2.5456,-2.5465,-2.5433,-2.5476,-2.5476,-2.5476,-2.5476,-2.5476,-2.4841,-2.487,-2.492,-2.4967,-2.5003,-2.5042,-2.5074,-2.5111,-2.5153,-2.521,-2.5232,-2.5283,-2.5332,-2.5407,-2.5438,-2.5479,-2.5482,-2.5491,-2.5494,-2.5495,-2.5493,-2.5451,-2.5489,-2.5489,-2.5489,-2.5489,-2.5489,0,-2.4865,-2.4898,-2.4941,-2.5,-2.5037,-2.5053,-2.5101,-2.5131,-2.5176,-2.522,-2.5261,-2.5319,-2.5368,-2.5415,-2.5466,-2.549,-2.55,-2.5502,-2.55,-2.5507,-2.5488,-2.5477,-2.5493,-2.5493,-2.5493,-2.5493,-2.5493,-2.5493,-2.4881,-2.493,-2.4955,-2.5022,-2.5056,-2.5106,-2.5132,-2.5168,-2.5204,-2.5267,-2.5308,-2.5338,-2.5383,-2.5438,-2.5484,-2.5496,-2.5513,-2.5512,-2.5527,-2.5509,-2.5508,-2.5507,-2.5497,-2.5516,-2.5516,-2.5542,-2.5542,-2.5542]}]]